Weather History for KARR - October, 2012

Change the Weather History Date:

Tuesday, October 9, 2012

  Actual Average Record
Temperature  
Mean Temperature 54 °F 53 °F  
Max Temperature 66 °F 65 °F 89 °F (2010)
Min Temperature 41 °F 41 °F 23 °F (2000)
Degree Days  
Heating Degree Days 11 13  
Month to date heating degree days 141 101  
Since 1 July heating degree days 340 254  
Cooling Degree Days 0 1  
Month to date cooling degree days 0 9  
Year to date cooling degree days 1004 656  
Growing Degree Days 2 (Base 50)    
Moisture  
Dew Point 38 °F    
Average Humidity 64    
Maximum Humidity 93    
Minimum Humidity 34    
Precipitation  
Precipitation 0.26 in 0.09 in 0.35 in (2009)
Month to date precipitation 0.55 0.92  
Year to date precipitation 18.33 29.56  
Sea Level Pressure  
Sea Level Pressure 29.92 in    
Wind  
Wind Speed 14 mph (SSW)    
Max Wind Speed 26 mph    
Max Gust Speed 37 mph    
Visibility 9 miles    
Events Rain    
T = Trace of Precipitation, MM = Missing Value Source: NWS Daily Summary

Daily Weather History Graph

Daily Weather History Graph

Search for Another Location

Airport or City:

Trip Planner

Search our weather history database for the weather conditions in past years. The results will help you decide how hot, cold, wet, or windy it might be!

Date:

Astronomy

Oct. 09, 2012 Rise Set
Actual Time 7:00 AM CDT 6:21 PM CDT
Civil Twilight 6:32 AM CDT 6:49 PM CDT
Nautical Twilight 5:59 AM CDT 7:21 PM CDT
Astronomical Twilight 5:27 AM CDT 7:53 PM CDT
Moon 12:31 AM CDT (10/9) 2:53 PM CDT (10/9)
Length of Visible Light 12h 17m
Length of Day
11h 21m
Last Quarter, 36% of the Moon is Illuminated
Oct 9
Last Quarter
Oct 15
New
Oct 21
First Quarter
Oct 29
Full
Nov 6
Last Quarter

Hourly Weather History & Observations

Time (CDT) Temp. Windchill Dew Point Humidity Pressure Visibility Wind Dir Wind Speed Gust Speed Precip Events Conditions
12:52 AM 44.1 °F 39.0 °F 34.0 °F 68% 30.00 in 10.0 mi South 9.2 mph - N/A   Clear
1:52 AM 45.0 °F 39.7 °F 34.0 °F 65% 30.00 in 10.0 mi South 10.4 mph - N/A   Partly Cloudy
2:52 AM 44.1 °F 39.5 °F 35.1 °F 71% 29.99 in 10.0 mi South 8.1 mph - N/A   Scattered Clouds
3:52 AM 44.1 °F 39.0 °F 35.1 °F 71% 29.98 in 10.0 mi South 9.2 mph - N/A   Overcast
4:52 AM 44.1 °F 38.6 °F 35.1 °F 71% 29.97 in 10.0 mi South 10.4 mph - N/A   Overcast
6:52 AM 44.1 °F 37.4 °F 36.0 °F 73% 29.96 in 10.0 mi South 13.8 mph - N/A   Partly Cloudy
7:52 AM 42.1 °F 37.1 °F 36.0 °F 79% 29.97 in 10.0 mi South 8.1 mph - N/A   Scattered Clouds
8:52 AM 48.0 °F - 37.9 °F 68% 29.96 in 10.0 mi South 12.7 mph - N/A   Clear
9:52 AM 54.0 °F - 39.0 °F 57% 29.94 in 10.0 mi SSW 15.0 mph 23.0 mph N/A   Mostly Cloudy
10:52 AM 57.9 °F - 39.0 °F 49% 29.92 in 10.0 mi SSW 18.4 mph 26.5 mph N/A   Overcast
11:52 AM 61.0 °F - 39.0 °F 44% 29.90 in 10.0 mi SSW 17.3 mph 25.3 mph N/A   Mostly Cloudy
12:52 PM 62.1 °F - 39.0 °F 43% 29.88 in 10.0 mi SSW 20.7 mph 29.9 mph N/A   Mostly Cloudy
1:52 PM 64.0 °F - 37.0 °F 37% 29.85 in 10.0 mi SSW 20.7 mph 31.1 mph N/A   Clear
2:52 PM 64.0 °F - 36.0 °F 35% 29.83 in 10.0 mi SSW 21.9 mph 29.9 mph N/A   Overcast
3:52 PM 64.0 °F - 37.0 °F 37% 29.82 in 10.0 mi SSW 21.9 mph 31.1 mph N/A   Clear
4:52 PM 64.0 °F - 37.0 °F 37% 29.82 in 10.0 mi SW 18.4 mph 27.6 mph N/A   Clear
5:52 PM 63.0 °F - 37.9 °F 40% 29.81 in 10.0 mi SSW 17.3 mph 27.6 mph N/A   Overcast
6:52 PM 59.0 °F - 39.9 °F 49% 29.84 in 10.0 mi West 9.2 mph - N/A   Overcast
7:52 PM 50.0 °F - 39.0 °F 66% 29.90 in 10.0 mi WNW 20.7 mph 28.8 mph N/A   Overcast
8:36 PM 42.8 °F 36.2 °F 41.0 °F 93% 29.91 in 5.0 mi NW 12.7 mph 23.0 mph 0.04 in Rain Light Rain
9:21 PM 42.8 °F 36.6 °F 41.0 °F 93% 29.92 in 5.0 mi NW 11.5 mph - 0.05 in Rain Light Rain
9:52 PM 42.1 °F 35.2 °F 39.9 °F 92% 29.94 in 6.0 mi WNW 12.7 mph - 0.11 in Rain Light Rain
10:52 PM 41.0 °F 38.0 °F 39.9 °F 96% 29.94 in 6.0 mi West 4.6 mph - 0.08 in Rain Light Rain
11:52 PM 42.1 °F 39.2 °F 39.9 °F 92% 29.94 in 10.0 mi SW 4.6 mph - 0.00 in   Overcast